LZ0VRC-10 Weather Reports


Display with metric or nautical units.
time (UTC)temp
F
wind
direction
speed
MPH
gust
MPH
rain 1hr
in
rain 24hr
in
rain mn
in
humidity
%
barometer
mb
20260906043506 76 0.0 0.0 0.00 0.00 0.00 24 1021.8
20260906042006 75 0.0 0.0 0.00 0.00 0.00 27 1021.7
20260906040506 74 0.0 0.0 0.00 0.00 0.00 39 1021.3
20260906035006 73 0.0 0.0 0.00 0.00 0.00 40 1021.2
20260906033506 74 0.0 0.0 0.00 0.00 0.00 39 1021.0
20260906032006 75 0.0 0.0 0.00 0.00 0.00 38 1020.8
20260906030506 75 0.0 0.0 0.00 0.00 0.00 39 1020.5
20260906025006 76 0.0 0.0 0.00 0.00 0.00 39 1020.3
20260906023506 76 0.0 0.0 0.00 0.00 0.00 39 1020.0
20260906022006 76 0.0 0.0 0.00 0.00 0.00 40 1020.0
20260906020506 76 0.0 0.0 0.00 0.00 0.00 41 1020.0
20260906015007 76 0.0 0.0 0.00 0.00 0.00 41 1019.8
20260906013507 78 0.0 0.0 0.00 0.00 0.00 37 1019.6
20260906012007 78 0.0 0.0 0.00 0.00 0.00 36 1019.5
20260906010507 79 0.0 0.0 0.00 0.00 0.00 35 1019.5
20260906005007 79 0.0 0.0 0.00 0.00 0.00 35 1019.4
20260906003507 78 0.0 0.0 0.00 0.00 0.00 37 1019.4
20260906002007 78 0.0 0.0 0.00 0.00 0.00 38 1019.4
20260906000507 79 0.0 0.0 0.00 0.00 0.00 37 1019.4
20260905235007 79 0.0 0.0 0.00 0.00 0.00 37 1019.4
20260905233507 78 0.0 0.0 0.00 0.00 0.00 38 1019.3
20260905232007 77 0.0 0.0 0.00 0.00 0.00 38 1019.2
20260905230507 77 0.0 0.0 0.00 0.00 0.00 37 1019.0
20260905225007 78 0.0 0.0 0.00 0.00 0.00 36 1018.9
20260905223507 78 0.0 0.0 0.00 0.00 0.00 34 1018.8
20260905222007 76 0.0 0.0 0.00 0.00 0.00 34 1018.6
20260905220507 77 0.0 0.0 0.00 0.00 0.00 31 1018.0
20260905215007 77 0.0 0.0 0.00 0.00 0.00 31 1017.9
20260905213507 77 0.0 0.0 0.00 0.00 0.00 32 1017.6
20260905212007 79 0.0 0.0 0.00 0.00 0.00 30 1017.3
20260905210507 80 0.0 0.0 0.00 0.00 0.00 29 1017.0
20260905205007 80 0.0 0.0 0.00 0.00 0.00 28 1016.9
20260905203507 80 0.0 0.0 0.00 0.00 0.00 28 1016.9
20260905202007 80 0.0 0.0 0.00 0.00 0.00 28 1016.8
20260905200507 80 0.0 0.0 0.00 0.00 0.00 28 1016.7
20260905195007 81 0.0 0.0 0.00 0.00 0.00 27 1016.6
20260905193507 81 0.0 0.0 0.00 0.00 0.00 27 1016.4
20260905192007 81 0.0 0.0 0.00 0.00 0.00 27 1016.5
20260905190507 81 0.0 0.0 0.00 0.00 0.00 27 1016.5
20260905185007 82 0.0 0.0 0.00 0.00 0.00 26 1016.5
20260905183507 82 0.0 0.0 0.00 0.00 0.00 26 1016.4
20260905182007 82 0.0 0.0 0.00 0.00 0.00 26 1016.3
20260905180507 83 0.0 0.0 0.00 0.00 0.00 25 1016.2
20260905175007 83 0.0 0.0 0.00 0.00 0.00 25 1016.0
20260905173507 84 0.0 0.0 0.00 0.00 0.00 24 1015.9
20260905172007 85 0.0 0.0 0.00 0.00 0.00 24 1015.7
20260905170507 86 0.0 0.0 0.00 0.00 0.00 23 1015.7
20260905165007 86 0.0 0.0 0.00 0.00 0.00 22 1015.6
20260905163507 88 0.0 0.0 0.00 0.00 0.00 21 1015.5
20260905162007 95 0.0 0.0 0.00 0.00 0.00 17 1015.5
20260905160508 97 0.0 0.0 0.00 0.00 0.00 16 1015.5
20260905155008 99 0.0 0.0 0.00 0.00 0.00 14 1015.5
20260905153507 98 0.0 0.0 0.00 0.00 0.00 14 1015.6
20260905152008 98 0.0 0.0 0.00 0.00 0.00 14 1015.6
20260905150508 100 0.0 0.0 0.00 0.00 0.00 13 1015.6
20260905145008 103 0.0 0.0 0.00 0.00 0.00 12 1015.7
20260905143508 103 0.0 0.0 0.00 0.00 0.00 12 1015.7
20260905142008 104 0.0 0.0 0.00 0.00 0.00 11 1015.8
20260905140508 103 0.0 0.0 0.00 0.00 0.00 11 1015.8
20260905135008 105 0.0 0.0 0.00 0.00 0.00 11 1016.0
20260905133508 104 0.0 0.0 0.00 0.00 0.00 12 1016.1
20260905132008 104 0.0 0.0 0.00 0.00 0.00 12 1016.2
20260905130508 104 0.0 0.0 0.00 0.00 0.00 11 1016.4
20260905125008 105 0.0 0.0 0.00 0.00 0.00 12 1016.6
20260905123508 104 0.0 0.0 0.00 0.00 0.00 12 1016.7
20260905122008 105 0.0 0.0 0.00 0.00 0.00 13 1017.0
20260905120508 105 0.0 0.0 0.00 0.00 0.00 13 1017.1
20260905115008 107 0.0 0.0 0.00 0.00 0.00 13 1017.4
20260905113508 105 0.0 0.0 0.00 0.00 0.00 14 1017.4
20260905112008 104 0.0 0.0 0.00 0.00 0.00 14 1017.4
20260905110508 104 0.0 0.0 0.00 0.00 0.00 14 1017.5
20260905105008 105 0.0 0.0 0.00 0.00 0.00 14 1017.7
20260905103508 105 0.0 0.0 0.00 0.00 0.00 14 1017.8
20260905102008 103 0.0 0.0 0.00 0.00 0.00 15 1017.9
20260905100508 103 0.0 0.0 0.00 0.00 0.00 15 1018.0
20260905095008 100 0.0 0.0 0.00 0.00 0.00 16 1018.1
20260905093508 102 0.0 0.0 0.00 0.00 0.00 16 1018.3
20260905092008 98 0.0 0.0 0.00 0.00 0.00 18 1018.5
20260905090508 101 0.0 0.0 0.00 0.00 0.00 17 1018.7
20260905085008 97 0.0 0.0 0.00 0.00 0.00 19 1018.8
20260905083508 95 0.0 0.0 0.00 0.00 0.00 21 1018.8
20260905082008 97 0.0 0.0 0.00 0.00 0.00 20 1018.9
20260905080508 95 0.0 0.0 0.00 0.00 0.00 21 1018.9
20260905075008 90 0.0 0.0 0.00 0.00 0.00 25 1018.9
20260905073508 88 0.0 0.0 0.00 0.00 0.00 27 1018.9
20260905072008 86 0.0 0.0 0.00 0.00 0.00 28 1019.0
20260905070508 83 0.0 0.0 0.00 0.00 0.00 31 1019.0
20260905065008 79 0.0 0.0 0.00 0.00 0.00 35 1019.0
20260905063508 78 0.0 0.0 0.00 0.00 0.00 36 1019.1
20260905062008 75 0.0 0.0 0.00 0.00 0.00 39 1019.0
20260905060508 75 0.0 0.0 0.00 0.00 0.00 39 1018.9
20260905055008 72 0.0 0.0 0.00 0.00 0.00 42 1018.9
20260905053508 72 0.0 0.0 0.00 0.00 0.00 43 1018.9
20260905052008 71 0.0 0.0 0.00 0.00 0.00 44 1018.9
20260905050508 70 0.0 0.0 0.00 0.00 0.00 45 1018.8
20260905045009 68 0.0 0.0 0.00 0.00 0.00 47 1018.9